owner,sensor,date,latitude,longitude,vertical_datum,wind_speed,wind_to_direction,wind_speed_of_gust,qcFlag 
TCOON,ioos:station:TCOON:031:1,2019-02-01T00:00:00Z,28.4073,-96.7122,0.0,7.1,70.0,9.2,'11111222,11111222,11111222' 
TCOON,ioos:station:TCOON:031:1,2019-02-01T00:06:00Z,28.4073,-96.7122,0.0,6.9,69.0,11.6,'11111222,11111222,11111222' 
TCOON,ioos:station:TCOON:031:1,2019-02-01T00:12:00Z,28.4073,-96.7122,0.0,7.3,73.0,11.2,'11111222,11111222,11111222' 
TCOON,ioos:station:TCOON:031:1,2019-02-01T00:18:00Z,28.4073,-96.7122,0.0,8.4,76.0,11.7,'11111222,11111222,11111222' 
TCOON,ioos:station:TCOON:031:1,2019-02-01T00:24:00Z,28.4073,-96.7122,0.0,8.4,76.0,11.7,'1111122,1111122,1111122' 
TCOON,ioos:station:TCOON:031:1,2019-02-01T00:30:00Z,28.4073,-96.7122,0.0,7.8,82.0,11.2,'11111222,11111222,11111222' 
TCOON,ioos:station:TCOON:031:1,2019-02-01T00:36:00Z,28.4073,-96.7122,0.0,6.6,85.0,11.4,'11111222,11111222,11111222' 
TCOON,ioos:station:TCOON:031:1,2019-02-01T00:42:00Z,28.4073,-96.7122,0.0,7.6,81.0,11.0,'11111222,11111222,11111222' 
TCOON,ioos:station:TCOON:031:1,2019-02-01T00:48:00Z,28.4073,-96.7122,0.0,7.5,89.0,10.7,'11111222,11111222,11111222' 
TCOON,ioos:station:TCOON:031:1,2019-02-01T00:54:00Z,28.4073,-96.7122,0.0,6.7,90.0,10.6,'11111222,11111222,11111222' 
TCOON,ioos:station:TCOON:031:1,2019-02-01T01:00:00Z,28.4073,-96.7122,0.0,6.9,84.0,11.0,'11111222,11111222,11111222' 
TCOON,ioos:station:TCOON:031:1,2019-02-01T01:06:00Z,28.4073,-96.7122,0.0,7.0,85.0,10.5,'11111222,11111222,11111222' 
TCOON,ioos:station:TCOON:031:1,2019-02-01T01:12:00Z,28.4073,-96.7122,0.0,7.2,82.0,10.8,'11111222,11111222,11111222' 
TCOON,ioos:station:TCOON:031:1,2019-02-01T01:18:00Z,28.4073,-96.7122,0.0,7.6,86.0,10.7,'11111222,11111222,11111222' 
TCOON,ioos:station:TCOON:031:1,2019-02-01T01:24:00Z,28.4073,-96.7122,0.0,7.6,86.0,10.7,'1111122,1111122,1111122' 
TCOON,ioos:station:TCOON:031:1,2019-02-01T01:30:00Z,28.4073,-96.7122,0.0,7.0,86.0,11.4,'11111222,11111222,11111222' 
TCOON,ioos:station:TCOON:031:1,2019-02-01T01:36:00Z,28.4073,-96.7122,0.0,8.8,89.0,11.0,'11111222,11111222,11111222' 
TCOON,ioos:station:TCOON:031:1,2019-02-01T01:42:00Z,28.4073,-96.7122,0.0,7.1,83.0,9.8,'11111222,11111222,11111222' 
TCOON,ioos:station:TCOON:031:1,2019-02-01T01:48:00Z,28.4073,-96.7122,0.0,6.7,91.0,10.3,'11111222,11111222,11111222' 
TCOON,ioos:station:TCOON:031:1,2019-02-01T01:54:00Z,28.4073,-96.7122,0.0,7.3,87.0,10.5,'11111222,11111222,11111222' 
TCOON,ioos:station:TCOON:031:1,2019-02-01T02:00:00Z,28.4073,-96.7122,0.0,6.4,84.0,11.6,'11111222,11111222,11111222' 
TCOON,ioos:station:TCOON:031:1,2019-02-01T02:06:00Z,28.4073,-96.7122,0.0,6.0,90.0,10.7,'11111222,11111222,11111222' 
TCOON,ioos:station:TCOON:031:1,2019-02-01T02:12:00Z,28.4073,-96.7122,0.0,8.4,94.0,11.5,'11111222,11111222,11111222' 
TCOON,ioos:station:TCOON:031:1,2019-02-01T02:18:00Z,28.4073,-96.7122,0.0,7.3,94.0,11.2,'11111222,11111222,11111222' 
TCOON,ioos:station:TCOON:031:1,2019-02-01T02:24:00Z,28.4073,-96.7122,0.0,7.3,94.0,11.2,'1111122,1111122,1111122' 
TCOON,ioos:station:TCOON:031:1,2019-02-01T02:30:00Z,28.4073,-96.7122,0.0,6.8,92.0,10.3,'11111222,11111222,11111222' 
TCOON,ioos:station:TCOON:031:1,2019-02-01T02:36:00Z,28.4073,-96.7122,0.0,7.6,90.0,11.6,'11111222,11111222,11111222' 
TCOON,ioos:station:TCOON:031:1,2019-02-01T02:42:00Z,28.4073,-96.7122,0.0,6.6,84.0,9.7,'11111222,11111222,11111222' 
TCOON,ioos:station:TCOON:031:1,2019-02-01T02:48:00Z,28.4073,-96.7122,0.0,6.8,87.0,12.4,'11111222,11111222,11111222' 
TCOON,ioos:station:TCOON:031:1,2019-02-01T02:54:00Z,28.4073,-96.7122,0.0,7.9,85.0,11.8,'11111222,11111222,11111222' 
TCOON,ioos:station:TCOON:031:1,2019-02-01T03:00:00Z,28.4073,-96.7122,0.0,8.0,92.0,10.7,'11111222,11111222,11111222' 
TCOON,ioos:station:TCOON:031:1,2019-02-01T03:06:00Z,28.4073,-96.7122,0.0,7.1,89.0,10.8,'11111222,11111222,11111222' 
TCOON,ioos:station:TCOON:031:1,2019-02-01T03:12:00Z,28.4073,-96.7122,0.0,7.0,87.0,10.4,'11111222,11111222,11111222' 
TCOON,ioos:station:TCOON:031:1,2019-02-01T03:18:00Z,28.4073,-96.7122,0.0,6.1,84.0,9.3,'11111222,11111222,11111222' 
TCOON,ioos:station:TCOON:031:1,2019-02-01T03:24:00Z,28.4073,-96.7122,0.0,6.1,84.0,9.3,'1111122,1111122,1111122' 
TCOON,ioos:station:TCOON:031:1,2019-02-01T03:30:00Z,28.4073,-96.7122,0.0,7.8,88.0,10.1,'11111222,11111222,11111222' 
TCOON,ioos:station:TCOON:031:1,2019-02-01T03:36:00Z,28.4073,-96.7122,0.0,7.0,89.0,9.6,'11111222,11111222,11111222' 
TCOON,ioos:station:TCOON:031:1,2019-02-01T03:42:00Z,28.4073,-96.7122,0.0,6.7,87.0,10.4,'11111222,11111222,11111222' 
TCOON,ioos:station:TCOON:031:1,2019-02-01T03:48:00Z,28.4073,-96.7122,0.0,6.5,86.0,10.1,'11111222,11111222,11111222' 
TCOON,ioos:station:TCOON:031:1,2019-02-01T03:54:00Z,28.4073,-96.7122,0.0,7.3,94.0,10.3,'11111222,11111222,11111222' 
TCOON,ioos:station:TCOON:031:1,2019-02-01T04:00:00Z,28.4073,-96.7122,0.0,7.4,91.0,10.2,'11111222,11111222,11111222' 
TCOON,ioos:station:TCOON:031:1,2019-02-01T04:06:00Z,28.4073,-96.7122,0.0,7.1,83.0,9.5,'11111222,11111222,11111222' 
TCOON,ioos:station:TCOON:031:1,2019-02-01T04:12:00Z,28.4073,-96.7122,0.0,5.2,85.0,8.4,'11111222,11111222,11111222' 
TCOON,ioos:station:TCOON:031:1,2019-02-01T04:18:00Z,28.4073,-96.7122,0.0,6.0,83.0,8.1,'11111222,11111222,11111222' 
TCOON,ioos:station:TCOON:031:1,2019-02-01T04:24:00Z,28.4073,-96.7122,0.0,6.0,83.0,8.1,'1111122,1111122,1111122' 
TCOON,ioos:station:TCOON:031:1,2019-02-01T04:30:00Z,28.4073,-96.7122,0.0,5.2,89.0,9.8,'11111222,11111222,11111222' 
TCOON,ioos:station:TCOON:031:1,2019-02-01T04:36:00Z,28.4073,-96.7122,0.0,5.7,89.0,7.3,'11111222,11111222,11111222' 
TCOON,ioos:station:TCOON:031:1,2019-02-01T04:42:00Z,28.4073,-96.7122,0.0,4.7,79.0,7.5,'11111222,11111222,11111222' 
TCOON,ioos:station:TCOON:031:1,2019-02-01T04:48:00Z,28.4073,-96.7122,0.0,5.0,79.0,6.8,'11111222,11111222,11111222' 
TCOON,ioos:station:TCOON:031:1,2019-02-01T04:54:00Z,28.4073,-96.7122,0.0,5.7,82.0,7.7,'11111222,11111222,11111222' 
TCOON,ioos:station:TCOON:031:1,2019-02-01T05:00:00Z,28.4073,-96.7122,0.0,4.8,80.0,7.5,'11111222,11111222,11111222' 
TCOON,ioos:station:TCOON:031:1,2019-02-01T05:06:00Z,28.4073,-96.7122,0.0,5.5,85.0,7.4,'11111222,11111222,11111222' 
TCOON,ioos:station:TCOON:031:1,2019-02-01T05:12:00Z,28.4073,-96.7122,0.0,4.7,88.0,7.6,'11111222,11111222,11111222' 
TCOON,ioos:station:TCOON:031:1,2019-02-01T05:18:00Z,28.4073,-96.7122,0.0,5.7,91.0,8.4,'11111222,11111222,11111222' 
TCOON,ioos:station:TCOON:031:1,2019-02-01T05:24:00Z,28.4073,-96.7122,0.0,5.7,91.0,8.4,'1111122,1111122,1111122' 
TCOON,ioos:station:TCOON:031:1,2019-02-01T05:30:00Z,28.4073,-96.7122,0.0,5.8,86.0,7.2,'11111222,11111222,11111222' 
TCOON,ioos:station:TCOON:031:1,2019-02-01T05:36:00Z,28.4073,-96.7122,0.0,4.7,90.0,6.9,'11111222,11111222,11111222' 
TCOON,ioos:station:TCOON:031:1,2019-02-01T05:42:00Z,28.4073,-96.7122,0.0,5.5,91.0,6.8,'11111222,11111222,11111222' 
TCOON,ioos:station:TCOON:031:1,2019-02-01T05:48:00Z,28.4073,-96.7122,0.0,4.5,91.0,7.2,'11111222,11111222,11111222' 
TCOON,ioos:station:TCOON:031:1,2019-02-01T05:54:00Z,28.4073,-96.7122,0.0,5.6,94.0,7.7,'11111222,11111222,11111222' 
TCOON,ioos:station:TCOON:031:1,2019-02-01T06:00:00Z,28.4073,-96.7122,0.0,6.0,94.0,7.5,'11111222,11111222,11111222' 
TCOON,ioos:station:TCOON:031:1,2019-02-01T06:06:00Z,28.4073,-96.7122,0.0,6.1,98.0,9.1,'11111222,11111222,11111222' 
TCOON,ioos:station:TCOON:031:1,2019-02-01T06:12:00Z,28.4073,-96.7122,0.0,5.3,96.0,7.6,'11111222,11111222,11111222' 
TCOON,ioos:station:TCOON:031:1,2019-02-01T06:18:00Z,28.4073,-96.7122,0.0,6.2,97.0,8.1,'11111222,11111222,11111222' 
TCOON,ioos:station:TCOON:031:1,2019-02-01T06:24:00Z,28.4073,-96.7122,0.0,6.2,97.0,8.1,'1111122,1111122,1111122' 
TCOON,ioos:station:TCOON:031:1,2019-02-01T06:30:00Z,28.4073,-96.7122,0.0,5.8,99.0,7.9,'11111222,11111222,11111222' 
TCOON,ioos:station:TCOON:031:1,2019-02-01T06:36:00Z,28.4073,-96.7122,0.0,5.1,95.0,7.2,'11111222,11111222,11111222' 
TCOON,ioos:station:TCOON:031:1,2019-02-01T06:42:00Z,28.4073,-96.7122,0.0,3.3,85.0,6.0,'11111222,11111222,11111222' 
TCOON,ioos:station:TCOON:031:1,2019-02-01T06:48:00Z,28.4073,-96.7122,0.0,3.9,84.0,5.2,'11111222,11111222,11111222' 
TCOON,ioos:station:TCOON:031:1,2019-02-01T06:54:00Z,28.4073,-96.7122,0.0,3.3,82.0,4.8,'11111222,11111222,11111222' 
TCOON,ioos:station:TCOON:031:1,2019-02-01T07:00:00Z,28.4073,-96.7122,0.0,3.0,83.0,4.8,'11111222,11111222,11111222' 
TCOON,ioos:station:TCOON:031:1,2019-02-01T07:06:00Z,28.4073,-96.7122,0.0,2.7,84.0,4.3,'11111222,11111222,11111222' 
TCOON,ioos:station:TCOON:031:1,2019-02-01T07:12:00Z,28.4073,-96.7122,0.0,2.5,69.0,4.0,'11111222,11111222,11111222' 
TCOON,ioos:station:TCOON:031:1,2019-02-01T07:18:00Z,28.4073,-96.7122,0.0,2.9,75.0,4.3,'11111222,11111222,11111222' 
TCOON,ioos:station:TCOON:031:1,2019-02-01T07:24:00Z,28.4073,-96.7122,0.0,2.9,75.0,4.3,'1111122,1111122,1111122' 
TCOON,ioos:station:TCOON:031:1,2019-02-01T07:30:00Z,28.4073,-96.7122,0.0,2.8,73.0,4.3,'11111222,11111222,11111222' 
TCOON,ioos:station:TCOON:031:1,2019-02-01T07:36:00Z,28.4073,-96.7122,0.0,2.5,69.0,4.2,'11111222,11111222,11111222' 
TCOON,ioos:station:TCOON:031:1,2019-02-01T07:42:00Z,28.4073,-96.7122,0.0,2.7,72.0,3.8,'11111222,11111222,11111222' 
TCOON,ioos:station:TCOON:031:1,2019-02-01T07:48:00Z,28.4073,-96.7122,0.0,3.0,70.0,3.9,'11111222,11111222,11111222' 
TCOON,ioos:station:TCOON:031:1,2019-02-01T07:54:00Z,28.4073,-96.7122,0.0,3.1,74.0,3.8,'11111222,11111222,11111222' 
TCOON,ioos:station:TCOON:031:1,2019-02-01T08:00:00Z,28.4073,-96.7122,0.0,2.3,85.0,4.1,'11111222,11111222,11111222' 
TCOON,ioos:station:TCOON:031:1,2019-02-01T08:06:00Z,28.4073,-96.7122,0.0,2.7,84.0,4.3,'11111222,11111222,11111222' 
TCOON,ioos:station:TCOON:031:1,2019-02-01T08:12:00Z,28.4073,-96.7122,0.0,2.2,83.0,4.0,'11111222,11111222,11111222' 
TCOON,ioos:station:TCOON:031:1,2019-02-01T08:18:00Z,28.4073,-96.7122,0.0,2.6,77.0,3.4,'11111222,11111222,11111222' 
TCOON,ioos:station:TCOON:031:1,2019-02-01T08:24:00Z,28.4073,-96.7122,0.0,2.6,77.0,3.4,'1111122,1111122,1111122' 
TCOON,ioos:station:TCOON:031:1,2019-02-01T08:30:00Z,28.4073,-96.7122,0.0,2.0,77.0,3.2,'11111222,11111222,11111222' 
TCOON,ioos:station:TCOON:031:1,2019-02-01T08:36:00Z,28.4073,-96.7122,0.0,2.2,70.0,3.0,'11111222,11111222,11111222' 
TCOON,ioos:station:TCOON:031:1,2019-02-01T08:42:00Z,28.4073,-96.7122,0.0,2.0,68.0,3.5,'11111222,11111222,11111222' 
TCOON,ioos:station:TCOON:031:1,2019-02-01T08:48:00Z,28.4073,-96.7122,0.0,2.1,69.0,3.0,'11111222,11111222,11111222' 
TCOON,ioos:station:TCOON:031:1,2019-02-01T08:54:00Z,28.4073,-96.7122,0.0,2.3,72.0,3.3,'11111222,11111222,11111222' 
TCOON,ioos:station:TCOON:031:1,2019-02-01T09:00:00Z,28.4073,-96.7122,0.0,2.3,67.0,3.8,'11111222,11111222,11111222' 
TCOON,ioos:station:TCOON:031:1,2019-02-01T09:06:00Z,28.4073,-96.7122,0.0,1.9,67.0,3.4,'11111222,11111222,11111222' 
TCOON,ioos:station:TCOON:031:1,2019-02-01T09:12:00Z,28.4073,-96.7122,0.0,1.6,56.0,3.4,'11111222,11111222,11111222' 
TCOON,ioos:station:TCOON:031:1,2019-02-01T09:18:00Z,28.4073,-96.7122,0.0,2.1,8.0,2.6,'11111222,11111222,11111222' 
TCOON,ioos:station:TCOON:031:1,2019-02-01T09:24:00Z,28.4073,-96.7122,0.0,2.1,8.0,2.6,'1111122,1111122,1111122' 
TCOON,ioos:station:TCOON:031:1,2019-02-01T09:30:00Z,28.4073,-96.7122,0.0,2.2,355.0,2.8,'11111222,11111222,11111222' 
TCOON,ioos:station:TCOON:031:1,2019-02-01T09:36:00Z,28.4073,-96.7122,0.0,2.5,6.0,3.4,'11111222,11111222,11111222' 
TCOON,ioos:station:TCOON:031:1,2019-02-01T09:42:00Z,28.4073,-96.7122,0.0,2.2,354.0,2.9,'11111222,11111222,11111222' 
TCOON,ioos:station:TCOON:031:1,2019-02-01T09:48:00Z,28.4073,-96.7122,0.0,2.3,8.0,2.9,'11111222,11111222,11111222' 
TCOON,ioos:station:TCOON:031:1,2019-02-01T09:54:00Z,28.4073,-96.7122,0.0,2.7,5.0,3.7,'11111222,11111222,11111222' 
TCOON,ioos:station:TCOON:031:1,2019-02-01T10:00:00Z,28.4073,-96.7122,0.0,2.9,7.0,3.6,'11111222,11111222,11111222' 
TCOON,ioos:station:TCOON:031:1,2019-02-01T10:06:00Z,28.4073,-96.7122,0.0,2.6,2.0,3.2,'11111222,11111222,11111222' 
TCOON,ioos:station:TCOON:031:1,2019-02-01T10:12:00Z,28.4073,-96.7122,0.0,3.2,357.0,3.8,'11111222,11111222,11111222' 
TCOON,ioos:station:TCOON:031:1,2019-02-01T10:18:00Z,28.4073,-96.7122,0.0,2.6,3.0,3.5,'11111222,11111222,11111222' 
TCOON,ioos:station:TCOON:031:1,2019-02-01T10:24:00Z,28.4073,-96.7122,0.0,2.6,3.0,3.5,'1111122,1111122,1111122' 
TCOON,ioos:station:TCOON:031:1,2019-02-01T10:30:00Z,28.4073,-96.7122,0.0,2.8,14.0,3.4,'11111222,11111222,11111222' 
TCOON,ioos:station:TCOON:031:1,2019-02-01T10:36:00Z,28.4073,-96.7122,0.0,2.5,13.0,3.5,'11111222,11111222,11111222' 
TCOON,ioos:station:TCOON:031:1,2019-02-01T10:42:00Z,28.4073,-96.7122,0.0,1.7,5.0,2.8,'11111222,11111222,11111222' 
TCOON,ioos:station:TCOON:031:1,2019-02-01T10:48:00Z,28.4073,-96.7122,0.0,2.3,4.0,3.1,'11111222,11111222,11111222' 
TCOON,ioos:station:TCOON:031:1,2019-02-01T10:54:00Z,28.4073,-96.7122,0.0,2.0,357.0,3.3,'11111222,11111222,11111222' 
TCOON,ioos:station:TCOON:031:1,2019-02-01T11:00:00Z,28.4073,-96.7122,0.0,2.4,8.0,3.1,'11111222,11111222,11111222' 
TCOON,ioos:station:TCOON:031:1,2019-02-01T11:06:00Z,28.4073,-96.7122,0.0,3.1,10.0,3.8,'11111222,11111222,11111222' 
TCOON,ioos:station:TCOON:031:1,2019-02-01T11:12:00Z,28.4073,-96.7122,0.0,3.0,10.0,3.7,'11111222,11111222,11111222' 
TCOON,ioos:station:TCOON:031:1,2019-02-01T11:18:00Z,28.4073,-96.7122,0.0,2.7,7.0,3.6,'11111222,11111222,11111222' 
TCOON,ioos:station:TCOON:031:1,2019-02-01T11:24:00Z,28.4073,-96.7122,0.0,2.7,7.0,3.6,'1111122,1111122,1111122' 
TCOON,ioos:station:TCOON:031:1,2019-02-01T11:30:00Z,28.4073,-96.7122,0.0,2.6,355.0,3.4,'11111222,11111222,11111222' 
TCOON,ioos:station:TCOON:031:1,2019-02-01T11:36:00Z,28.4073,-96.7122,0.0,2.5,3.0,3.3,'11111222,11111222,11111222' 
TCOON,ioos:station:TCOON:031:1,2019-02-01T11:42:00Z,28.4073,-96.7122,0.0,2.5,7.0,3.2,'11111222,11111222,11111222' 
TCOON,ioos:station:TCOON:031:1,2019-02-01T11:48:00Z,28.4073,-96.7122,0.0,2.7,6.0,3.4,'11111222,11111222,11111222' 
TCOON,ioos:station:TCOON:031:1,2019-02-01T11:54:00Z,28.4073,-96.7122,0.0,2.4,1.0,3.0,'11111222,11111222,11111222' 
TCOON,ioos:station:TCOON:031:1,2019-02-01T12:00:00Z,28.4073,-96.7122,0.0,2.5,10.0,3.3,'11111222,11111222,11111222' 
TCOON,ioos:station:TCOON:031:1,2019-02-01T12:06:00Z,28.4073,-96.7122,0.0,2.5,10.0,3.1,'11111222,11111222,11111222' 
TCOON,ioos:station:TCOON:031:1,2019-02-01T12:12:00Z,28.4073,-96.7122,0.0,2.5,10.0,3.0,'11111222,11111222,11111222' 
TCOON,ioos:station:TCOON:031:1,2019-02-01T12:18:00Z,28.4073,-96.7122,0.0,2.4,6.0,3.2,'11111222,11111222,11111222' 
TCOON,ioos:station:TCOON:031:1,2019-02-01T12:24:00Z,28.4073,-96.7122,0.0,2.4,6.0,3.2,'1111122,1111122,1111122' 
TCOON,ioos:station:TCOON:031:1,2019-02-01T12:30:00Z,28.4073,-96.7122,0.0,2.0,28.0,2.9,'11111222,11111222,11111222' 
TCOON,ioos:station:TCOON:031:1,2019-02-01T12:36:00Z,28.4073,-96.7122,0.0,2.3,30.0,3.6,'11111222,11111222,11111222' 
TCOON,ioos:station:TCOON:031:1,2019-02-01T12:42:00Z,28.4073,-96.7122,0.0,2.2,25.0,3.4,'11111222,11111222,11111222' 
TCOON,ioos:station:TCOON:031:1,2019-02-01T12:48:00Z,28.4073,-96.7122,0.0,2.0,23.0,3.0,'11111222,11111222,11111222' 
TCOON,ioos:station:TCOON:031:1,2019-02-01T12:54:00Z,28.4073,-96.7122,0.0,2.6,10.0,3.0,'11111222,11111222,11111222' 
TCOON,ioos:station:TCOON:031:1,2019-02-01T13:00:00Z,28.4073,-96.7122,0.0,2.3,8.0,3.2,'11111222,11111222,11111222' 
TCOON,ioos:station:TCOON:031:1,2019-02-01T13:06:00Z,28.4073,-96.7122,0.0,2.5,10.0,3.1,'11111222,11111222,11111222' 
TCOON,ioos:station:TCOON:031:1,2019-02-01T13:12:00Z,28.4073,-96.7122,0.0,2.1,18.0,3.0,'11111222,11111222,11111222' 
TCOON,ioos:station:TCOON:031:1,2019-02-01T13:18:00Z,28.4073,-96.7122,0.0,2.2,19.0,3.0,'11111222,11111222,11111222' 
TCOON,ioos:station:TCOON:031:1,2019-02-01T13:24:00Z,28.4073,-96.7122,0.0,2.2,19.0,3.0,'1111122,1111122,1111122' 
TCOON,ioos:station:TCOON:031:1,2019-02-01T13:30:00Z,28.4073,-96.7122,0.0,2.2,17.0,3.1,'11111222,11111222,11111222' 
TCOON,ioos:station:TCOON:031:1,2019-02-01T13:36:00Z,28.4073,-96.7122,0.0,2.0,23.0,2.8,'11111222,11111222,11111222' 
TCOON,ioos:station:TCOON:031:1,2019-02-01T13:42:00Z,28.4073,-96.7122,0.0,1.7,14.0,2.6,'11111222,11111222,11111222' 
TCOON,ioos:station:TCOON:031:1,2019-02-01T13:48:00Z,28.4073,-96.7122,0.0,2.0,359.0,2.5,'11111222,11111222,11111222' 
TCOON,ioos:station:TCOON:031:1,2019-02-01T13:54:00Z,28.4073,-96.7122,0.0,1.9,2.0,2.5,'11111222,11111222,11111222' 
TCOON,ioos:station:TCOON:031:1,2019-02-01T14:00:00Z,28.4073,-96.7122,0.0,1.7,8.0,2.4,'11111222,11111222,11111222' 
TCOON,ioos:station:TCOON:031:1,2019-02-01T14:06:00Z,28.4073,-96.7122,0.0,2.3,30.0,3.4,'11111222,11111222,11111222' 
TCOON,ioos:station:TCOON:031:1,2019-02-01T14:12:00Z,28.4073,-96.7122,0.0,2.0,37.0,2.7,'11111222,11111222,11111222' 
TCOON,ioos:station:TCOON:031:1,2019-02-01T14:18:00Z,28.4073,-96.7122,0.0,2.2,43.0,3.0,'11111222,11111222,11111222' 
TCOON,ioos:station:TCOON:031:1,2019-02-01T14:24:00Z,28.4073,-96.7122,0.0,2.2,43.0,3.0,'1111122,1111122,1111122' 
TCOON,ioos:station:TCOON:031:1,2019-02-01T14:30:00Z,28.4073,-96.7122,0.0,1.7,37.0,3.2,'11111222,11111222,11111222' 
TCOON,ioos:station:TCOON:031:1,2019-02-01T14:36:00Z,28.4073,-96.7122,0.0,2.5,11.0,3.6,'11111222,11111222,11111222' 
TCOON,ioos:station:TCOON:031:1,2019-02-01T14:42:00Z,28.4073,-96.7122,0.0,2.6,10.0,3.2,'11111222,11111222,11111222' 
TCOON,ioos:station:TCOON:031:1,2019-02-01T14:48:00Z,28.4073,-96.7122,0.0,2.9,18.0,4.0,'11111222,11111222,11111222' 
TCOON,ioos:station:TCOON:031:1,2019-02-01T14:54:00Z,28.4073,-96.7122,0.0,3.0,25.0,4.0,'11111222,11111222,11111222' 
TCOON,ioos:station:TCOON:031:1,2019-02-01T15:00:00Z,28.4073,-96.7122,0.0,2.9,26.0,4.4,'11111222,11111222,11111222' 
TCOON,ioos:station:TCOON:031:1,2019-02-01T15:06:00Z,28.4073,-96.7122,0.0,2.7,24.0,3.5,'11111222,11111222,11111222' 
TCOON,ioos:station:TCOON:031:1,2019-02-01T15:12:00Z,28.4073,-96.7122,0.0,3.1,12.0,4.2,'11111222,11111222,11111222' 
TCOON,ioos:station:TCOON:031:1,2019-02-01T15:18:00Z,28.4073,-96.7122,0.0,3.3,8.0,4.1,'11111222,11111222,11111222' 
TCOON,ioos:station:TCOON:031:1,2019-02-01T15:24:00Z,28.4073,-96.7122,0.0,3.3,8.0,4.1,'1111122,1111122,1111122' 
TCOON,ioos:station:TCOON:031:1,2019-02-01T15:30:00Z,28.4073,-96.7122,0.0,3.4,15.0,4.3,'11111222,11111222,11111222' 
TCOON,ioos:station:TCOON:031:1,2019-02-01T15:36:00Z,28.4073,-96.7122,0.0,3.2,25.0,4.6,'11111222,11111222,11111222' 
TCOON,ioos:station:TCOON:031:1,2019-02-01T15:42:00Z,28.4073,-96.7122,0.0,3.2,48.0,4.0,'11111222,11111222,11111222' 
TCOON,ioos:station:TCOON:031:1,2019-02-01T15:48:00Z,28.4073,-96.7122,0.0,2.9,35.0,4.6,'11111222,11111222,11111222' 
TCOON,ioos:station:TCOON:031:1,2019-02-01T15:54:00Z,28.4073,-96.7122,0.0,3.5,42.0,5.4,'11111222,11111222,11111222' 
TCOON,ioos:station:TCOON:031:1,2019-02-01T16:00:00Z,28.4073,-96.7122,0.0,3.5,41.0,4.8,'11111222,11111222,11111222' 
TCOON,ioos:station:TCOON:031:1,2019-02-01T16:06:00Z,28.4073,-96.7122,0.0,3.4,61.0,5.2,'11111222,11111222,11111222' 
TCOON,ioos:station:TCOON:031:1,2019-02-01T16:12:00Z,28.4073,-96.7122,0.0,4.4,59.0,5.6,'11111222,11111222,11111222' 
TCOON,ioos:station:TCOON:031:1,2019-02-01T16:18:00Z,28.4073,-96.7122,0.0,3.6,47.0,6.0,'11111222,11111222,11111222' 
TCOON,ioos:station:TCOON:031:1,2019-02-01T16:24:00Z,28.4073,-96.7122,0.0,3.6,47.0,6.0,'1111122,1111122,1111122' 
TCOON,ioos:station:TCOON:031:1,2019-02-01T16:30:00Z,28.4073,-96.7122,0.0,3.5,48.0,5.5,'11111222,11111222,11111222' 
TCOON,ioos:station:TCOON:031:1,2019-02-01T16:36:00Z,28.4073,-96.7122,0.0,4.4,55.0,5.8,'11111222,11111222,11111222' 
TCOON,ioos:station:TCOON:031:1,2019-02-01T16:42:00Z,28.4073,-96.7122,0.0,4.3,69.0,6.9,'11111222,11111222,11111222' 
TCOON,ioos:station:TCOON:031:1,2019-02-01T16:48:00Z,28.4073,-96.7122,0.0,4.1,50.0,5.3,'11111222,11111222,11111222' 
TCOON,ioos:station:TCOON:031:1,2019-02-01T16:54:00Z,28.4073,-96.7122,0.0,3.7,56.0,5.9,'11111222,11111222,11111222' 
TCOON,ioos:station:TCOON:031:1,2019-02-01T17:00:00Z,28.4073,-96.7122,0.0,3.6,64.0,4.9,'11111222,11111222,11111222' 
TCOON,ioos:station:TCOON:031:1,2019-02-01T17:06:00Z,28.4073,-96.7122,0.0,5.4,65.0,6.8,'11111222,11111222,11111222' 
TCOON,ioos:station:TCOON:031:1,2019-02-01T17:12:00Z,28.4073,-96.7122,0.0,3.7,55.0,6.1,'11111222,11111222,11111222' 
TCOON,ioos:station:TCOON:031:1,2019-02-01T17:18:00Z,28.4073,-96.7122,0.0,3.9,63.0,5.9,'11111222,11111222,11111222' 
TCOON,ioos:station:TCOON:031:1,2019-02-01T17:24:00Z,28.4073,-96.7122,0.0,2.5,72.0,5.9,'11111222,11111222,11111222' 
TCOON,ioos:station:TCOON:031:1,2019-02-01T17:30:00Z,28.4073,-96.7122,0.0,2.5,72.0,5.9,'1111122,1111122,1111122' 
TCOON,ioos:station:TCOON:031:1,2019-02-01T17:36:00Z,28.4073,-96.7122,0.0,3.5,58.0,6.5,'11111222,11111222,11111222' 
TCOON,ioos:station:TCOON:031:1,2019-02-01T17:42:00Z,28.4073,-96.7122,0.0,3.2,59.0,6.1,'11111222,11111222,11111222' 
TCOON,ioos:station:TCOON:031:1,2019-02-01T17:48:00Z,28.4073,-96.7122,0.0,3.7,60.0,6.1,'11111222,11111222,11111222' 
TCOON,ioos:station:TCOON:031:1,2019-02-01T17:54:00Z,28.4073,-96.7122,0.0,3.5,55.0,5.2,'11111222,11111222,11111222' 
TCOON,ioos:station:TCOON:031:1,2019-02-01T18:00:00Z,28.4073,-96.7122,0.0,2.8,35.0,4.8,'11111222,11111222,11111222' 
TCOON,ioos:station:TCOON:031:1,2019-02-01T18:06:00Z,28.4073,-96.7122,0.0,2.8,41.0,5.0,'11111222,11111222,11111222' 
TCOON,ioos:station:TCOON:031:1,2019-02-01T18:12:00Z,28.4073,-96.7122,0.0,3.1,39.0,4.4,'11111222,11111222,11111222' 
TCOON,ioos:station:TCOON:031:1,2019-02-01T18:18:00Z,28.4073,-96.7122,0.0,3.0,47.0,4.4,'11111222,11111222,11111222' 
TCOON,ioos:station:TCOON:031:1,2019-02-01T18:24:00Z,28.4073,-96.7122,0.0,3.0,47.0,4.4,'1111122,1111122,1111122' 
TCOON,ioos:station:TCOON:031:1,2019-02-01T18:30:00Z,28.4073,-96.7122,0.0,3.0,37.0,5.3,'11111222,11111222,11111222' 
TCOON,ioos:station:TCOON:031:1,2019-02-01T18:36:00Z,28.4073,-96.7122,0.0,2.8,39.0,4.3,'11111222,11111222,11111222' 
TCOON,ioos:station:TCOON:031:1,2019-02-01T18:42:00Z,28.4073,-96.7122,0.0,3.4,43.0,4.7,'11111222,11111222,11111222' 
TCOON,ioos:station:TCOON:031:1,2019-02-01T18:48:00Z,28.4073,-96.7122,0.0,3.1,77.0,4.7,'11111222,11111222,11111222' 
TCOON,ioos:station:TCOON:031:1,2019-02-01T18:54:00Z,28.4073,-96.7122,0.0,3.9,76.0,5.8,'11111222,11111222,11111222' 
TCOON,ioos:station:TCOON:031:1,2019-02-01T19:00:00Z,28.4073,-96.7122,0.0,3.6,69.0,5.3,'11111222,11111222,11111222' 
TCOON,ioos:station:TCOON:031:1,2019-02-01T19:06:00Z,28.4073,-96.7122,0.0,4.5,66.0,6.0,'11111222,11111222,11111222' 
TCOON,ioos:station:TCOON:031:1,2019-02-01T19:12:00Z,28.4073,-96.7122,0.0,3.7,59.0,5.1,'11111222,11111222,11111222' 
TCOON,ioos:station:TCOON:031:1,2019-02-01T19:18:00Z,28.4073,-96.7122,0.0,3.3,48.0,4.7,'11111222,11111222,11111222' 
TCOON,ioos:station:TCOON:031:1,2019-02-01T19:24:00Z,28.4073,-96.7122,0.0,3.3,48.0,4.7,'1111122,1111122,1111122' 
TCOON,ioos:station:TCOON:031:1,2019-02-01T19:30:00Z,28.4073,-96.7122,0.0,3.6,36.0,5.4,'11111222,11111222,11111222' 
TCOON,ioos:station:TCOON:031:1,2019-02-01T19:36:00Z,28.4073,-96.7122,0.0,3.0,36.0,5.2,'11111222,11111222,11111222' 
TCOON,ioos:station:TCOON:031:1,2019-02-01T19:42:00Z,28.4073,-96.7122,0.0,4.1,32.0,5.5,'11111222,11111222,11111222' 
TCOON,ioos:station:TCOON:031:1,2019-02-01T19:48:00Z,28.4073,-96.7122,0.0,3.6,32.0,5.3,'11111222,11111222,11111222' 
TCOON,ioos:station:TCOON:031:1,2019-02-01T19:54:00Z,28.4073,-96.7122,0.0,4.1,36.0,6.1,'11111222,11111222,11111222' 
TCOON,ioos:station:TCOON:031:1,2019-02-01T20:00:00Z,28.4073,-96.7122,0.0,4.4,42.0,5.9,'11111222,11111222,11111222' 
TCOON,ioos:station:TCOON:031:1,2019-02-01T20:06:00Z,28.4073,-96.7122,0.0,3.4,41.0,6.2,'11111222,11111222,11111222' 
TCOON,ioos:station:TCOON:031:1,2019-02-01T20:12:00Z,28.4073,-96.7122,0.0,3.6,45.0,5.6,'11111222,11111222,11111222' 
TCOON,ioos:station:TCOON:031:1,2019-02-01T20:18:00Z,28.4073,-96.7122,0.0,3.8,40.0,5.7,'11111222,11111222,11111222' 
TCOON,ioos:station:TCOON:031:1,2019-02-01T20:24:00Z,28.4073,-96.7122,0.0,3.8,40.0,5.7,'1111122,1111122,1111122' 
TCOON,ioos:station:TCOON:031:1,2019-02-01T20:30:00Z,28.4073,-96.7122,0.0,4.1,54.0,5.4,'11111222,11111222,11111222' 